Skip to main content

Smoker’s Haven, Krumble Kake, Co, 2 oz sealed tin- 2004

Auction Closed

Sold for: $401.00[46 Bids]

Reserve: [n/a]Winner: 13191761000

  • Auction closed
  • Bidding Over
  • First Bid: 2 years ago
  • Last Bid: 2 years ago
  • Shipping: n/a

Ends:


Days


Hours


Minutes


Seconds

Description

    Smoker’s Haven, Krumble Kake, Co, 2 oz sealed tin- 2004. Made in the British Isles. Has been securely stored since 2004 in a temperature and humidity controlled environment. No reserve

    Seller

    Ostro pipes

    1153 total auctions

    60 current auctions

    Auction Information

    Shipping: $10.40

    From: n/a

    To: n/a

    (Ended) Smoker’s Haven, Krumble Kake, Co, 2 oz sealed tin- 2004

    Smoker’s Haven, Krumble Kake, Co, 2 oz sealed tin- 2004. Made in the British Isles. Has been securely stored since 2004 in a temperature and humidity controlled environment. No reserve

    This auction contains tobacco.  If you live in certain states, you will be unable to purchase this product.

    Bid History (46 Bids)

    Show Bids
    # Amount Bidder Type Date
    46 $401.00 1***0 Auto 19 Mar 2024 @ 2:58:51pm
    45 $401.00 w***n Outbid 19 Mar 2024 @ 2:58:51pm
    44 $401.00 1***0 Auto 19 Mar 2024 @ 2:57:39pm
    43 $385.00 w***n Outbid 19 Mar 2024 @ 2:57:39pm
    42 $401.00 1***0 Auto 19 Mar 2024 @ 1:33:28pm
    41 $280.00 F***y Outbid 19 Mar 2024 @ 1:33:28pm
    40 $401.00 1***0 Auto 19 Mar 2024 @ 12:33:00pm
    39 $270.00 F***y Outbid 19 Mar 2024 @ 12:33:00pm
    38 $401.00 1***0 Auto 19 Mar 2024 @ 12:32:52pm
    37 $260.00 F***y Outbid 19 Mar 2024 @ 12:32:52pm
    36 $401.00 1***0 New 19 Mar 2024 @ 12:17:43pm
    35 $250.00 F***y New 18 Mar 2024 @ 8:32:25pm
    34 $241.00 m***6 New 18 Mar 2024 @ 7:18:24pm
    33 $235.00 F***y Auto 18 Mar 2024 @ 7:18:07pm
    32 $231.00 m***6 Outbid 18 Mar 2024 @ 7:18:07pm
    31 $235.00 F***y Auto 18 Mar 2024 @ 7:17:50pm
    30 $221.00 m***6 Outbid 18 Mar 2024 @ 7:17:50pm
    29 $235.00 F***y Auto 18 Mar 2024 @ 7:17:39pm
    28 $211.00 m***6 Outbid 18 Mar 2024 @ 7:17:39pm
    27 $235.00 F***y Auto 18 Mar 2024 @ 7:17:27pm
    26 $206.00 m***6 Outbid 18 Mar 2024 @ 7:17:27pm
    25 $235.00 F***y New 18 Mar 2024 @ 10:53:58am
    24 $202.00 m***6 New 18 Mar 2024 @ 3:23:09am
    23 $200.00 F***y Auto 17 Mar 2024 @ 3:34:14am
    22 $199.00 M***r Outbid 17 Mar 2024 @ 3:34:14am
    21 $200.00 F***y New 16 Mar 2024 @ 11:09:45am
    20 $189.00 c***s New 16 Mar 2024 @ 1:01:03am
    19 $175.00 F***y Auto 14 Mar 2024 @ 7:25:49pm
    18 $175.00 m***6 Outbid 14 Mar 2024 @ 7:25:49pm
    17 $175.00 F***y Auto 14 Mar 2024 @ 10:33:29am
    16 $171.00 m***6 Outbid 14 Mar 2024 @ 10:33:29am
    15 $175.00 F***y New 13 Mar 2024 @ 10:16:34pm
    14 $159.00 c***s Auto 13 Mar 2024 @ 5:35:27pm
    13 $154.00 m***6 Outbid 13 Mar 2024 @ 5:35:27pm
    12 $159.00 c***s Auto 13 Mar 2024 @ 5:35:05pm
    11 $150.00 F***y Outbid 13 Mar 2024 @ 5:35:05pm
    10 $159.00 c***s Auto 13 Mar 2024 @ 12:59:07pm
    9 $141.00 D***G Outbid 13 Mar 2024 @ 12:59:07pm
    8 $159.00 c***s Auto 13 Mar 2024 @ 9:12:37am
    7 $137.00 e***o Outbid 13 Mar 2024 @ 9:12:37am
    6 $159.00 c***s Auto 13 Mar 2024 @ 4:05:36am
    5 $133.00 1***0 Outbid 13 Mar 2024 @ 4:05:36am
    4 $159.00 c***s New 13 Mar 2024 @ 3:26:49am
    3 $129.00 m***6 New 13 Mar 2024 @ 3:25:53am
    2 $127.00 c***s New 12 Mar 2024 @ 11:41:50pm
    1 $125.00 M***r New 12 Mar 2024 @ 7:19:56pm
    $125.00   Start 12 Mar 2024 @ 3:22:09pm
    The auction has ended!

    Ending Price

    401.00